GFSFLT1_prec_precacc_024.txt.gz
Total_Precipitation_Accumulation
0.02 0.07 0.04 0.02 0.01 0.16 0.62 0.66 0.78 0.71 0.38 0.20 0.13 0.12 0.05 0.02 0.01 0.00 0.00 0.00 0.00 0.00 0.00 0.00 0.00 0.00 0.00 0.00 0.00 0.00 0.00 0.00
0.04 0.07 0.08 0.04 0.06 0.23 0.35 0.54 0.52 0.24 0.09 0.11 0.11 0.06 0.03 0.01 0.00 0.00 0.00 0.00 0.00 0.00 0.00 0.00 0.00 0.00 0.00 0.00 0.00 0.00 0.00 0.00
0.01 0.03 0.05 0.06 0.12 0.31 0.32 0.20 0.12 0.03 0.04 0.05 0.04 0.02 0.01 0.00 0.00 0.00 0.00 0.00 0.00 0.00 0.00 0.00 0.00 0.00 0.00 0.00 0.00 0.00 0.00 0.00
0.02 0.04 0.03 0.05 0.07 0.07 0.03 0.02 0.01 0.01 0.01 0.01 0.00 0.00 0.00 0.00 0.00 0.00 0.00 0.00 0.00 0.00 0.00 0.00 0.00 0.00 0.00 0.00 0.00 0.00 0.00 0.00
0.00 0.00 0.00 0.03 0.02 0.02 0.00 0.00 0.00 0.00 0.00 0.00 0.00 0.00 0.00 0.00 0.00 0.00 0.00 0.00 0.00 0.00 0.00 0.00 0.00 0.00 0.00 0.00 0.00 0.00 0.00 0.00
0.00 0.00 0.00 0.00 0.00 0.00 0.00 0.00 0.00 0.00 0.00 0.00 0.00 0.00 0.00 0.00 0.00 0.00 0.00 0.00 0.00 0.00 0.00 0.00 0.00 0.00 0.00 0.00 0.00 0.00 0.00 0.00
0.00 0.00 0.00 0.00 0.00 0.00 0.00 0.00 0.00 0.00 0.00 0.00 0.00 0.00 0.00 0.00 0.00 0.00 0.00 0.00 0.00 0.00 0.00 0.00 0.00 0.00 0.00 0.00 0.00 0.00 0.00 0.00
0.00 0.00 0.00 0.00 0.00 0.00 0.00 0.00 0.00 0.00 0.00 0.00 0.00 0.00 0.00 0.00 0.00 0.00 0.00 0.00 0.00 0.00 0.00 0.00 0.00 0.00 0.00 0.00 0.00 0.01 0.01 0.00
0.00 0.00 0.00 0.00 0.00 0.00 0.00 0.00 0.00 0.00 0.00 0.00 0.00 0.00 0.00 0.00 0.00 0.00 0.00 0.00 0.00 0.00 0.00 0.00 0.00 0.01 0.00 0.00 0.01 0.02 0.01 0.01
0.00 0.00 0.00 0.00 0.00 0.00 0.00 0.00 0.00 0.00 0.00 0.00 0.00 0.00 0.00 0.00 0.00 0.00 0.00 0.00 0.00 0.00 0.00 0.01 0.03 0.02 0.02 0.03 0.05 0.04 0.04 0.03
0.00 0.00 0.00 0.00 0.00 0.00 0.00 0.00 0.00 0.00 0.00 0.00 0.00 0.00 0.00 0.00 0.00 0.00 0.00 0.00 0.00 0.00 0.02 0.02 0.01 0.02 0.03 0.03 0.02 0.03 0.03 0.03
0.00 0.00 0.00 0.00 0.00 0.00 0.00 0.00 0.00 0.00 0.00 0.00 0.00 0.00 0.00 0.00 0.00 0.00 0.00 0.00 0.00 0.01 0.00 0.01 0.01 0.00 0.01 0.02 0.04 0.05 0.05 0.04
0.00 0.00 0.00 0.00 0.00 0.00 0.00 0.00 0.00 0.00 0.00 0.00 0.00 0.00 0.00 0.00 0.00 0.00 0.00 0.00 0.00 0.00 0.01 0.00 0.00 0.01 0.03 0.05 0.05 0.03 0.03 0.02
0.00 0.00 0.00 0.00 0.00 0.00 0.00 0.00 0.00 0.00 0.00 0.00 0.00 0.00 0.00 0.00 0.00 0.00 0.00 0.00 0.01 0.01 0.00 0.00 0.00 0.01 0.02 0.02 0.01 0.00 0.00 0.00
0.00 0.00 0.00 0.00 0.00 0.00 0.00 0.00 0.00 0.00 0.00 0.00 0.01 0.01 0.01 0.00 0.00 0.01 0.01 0.02 0.03 0.00 0.00 0.01 0.01 0.00 0.00 0.00 0.00 0.00 0.00 0.01
0.00 0.00 0.00 0.00 0.00 0.00 0.00 0.00 0.00 0.00 0.00 0.00 0.00 0.01 0.01 0.02 0.04 0.02 0.03 0.02 0.00 0.01 0.01 0.00 0.00 0.02 0.00 0.00 0.00 0.01 0.01 0.00
0.00 0.00 0.00 0.00 0.00 0.00 0.00 0.00 0.00 0.00 0.00 0.00 0.01 0.01 0.03 0.04 0.02 0.04 0.02 0.01 0.00 0.00 0.00 0.01 0.04 0.03 0.00 0.00 0.00 0.00 0.00 0.00
0.00 0.00 0.00 0.00 0.00 0.00 0.00 0.00 0.00 0.00 0.00 0.00 0.01 0.01 0.02 0.02 0.04 0.02 0.00 0.01 0.00 0.00 0.00 0.01 0.01 0.00 0.00 0.00 0.00 0.00 0.00 0.00
0.00 0.00 0.00 0.00 0.00 0.00 0.00 0.00 0.00 0.00 0.00 0.00 0.00 0.01 0.01 0.04 0.03 0.01 0.01 0.00 0.00 0.00 0.00 0.00 0.00 0.00 0.00 0.00 0.00 0.00 0.00 0.00

GFSFLT1_prec_precacc_030.txt.gz
Total_Precipitation_Accumulation
0.02 0.07 0.04 0.02 0.02 0.24 0.63 0.66 0.81 0.72 0.41 0.23 0.14 0.12 0.05 0.02 0.01 0.00 0.00 0.00 0.00 0.00 0.00 0.00 0.00 0.00 0.00 0.00 0.00 0.00 0.00 0.00
0.04 0.07 0.08 0.05 0.06 0.26 0.38 0.56 0.58 0.26 0.13 0.14 0.12 0.06 0.03 0.01 0.00 0.00 0.00 0.00 0.00 0.00 0.00 0.00 0.00 0.00 0.00 0.00 0.00 0.00 0.00 0.00
0.01 0.03 0.05 0.07 0.14 0.36 0.45 0.30 0.16 0.04 0.07 0.07 0.04 0.02 0.01 0.00 0.00 0.00 0.00 0.00 0.00 0.00 0.00 0.00 0.00 0.00 0.00 0.00 0.00 0.00 0.00 0.00
0.02 0.04 0.03 0.05 0.07 0.11 0.23 0.10 0.05 0.01 0.02 0.01 0.00 0.00 0.00 0.00 0.00 0.00 0.00 0.00 0.00 0.00 0.00 0.00 0.00 0.00 0.00 0.00 0.00 0.00 0.00 0.00
0.00 0.00 0.00 0.03 0.03 0.05 0.22 0.09 0.02 0.02 0.02 0.00 0.00 0.00 0.00 0.00 0.00 0.00 0.00 0.00 0.00 0.00 0.00 0.00 0.00 0.00 0.00 0.00 0.00 0.00 0.00 0.00
0.00 0.00 0.00 0.00 0.06 0.06 0.15 0.04 0.00 0.00 0.01 0.00 0.00 0.00 0.00 0.00 0.00 0.00 0.00 0.00 0.00 0.00 0.00 0.00 0.00 0.00 0.00 0.00 0.00 0.00 0.00 0.00
0.00 0.00 0.00 0.01 0.02 0.02 0.06 0.02 0.00 0.00 0.00 0.00 0.00 0.00 0.00 0.00 0.00 0.00 0.00 0.00 0.00 0.00 0.00 0.00 0.00 0.00 0.00 0.00 0.00 0.00 0.00 0.00
0.00 0.00 0.00 0.00 0.00 0.05 0.04 0.01 0.00 0.00 0.00 0.00 0.00 0.00 0.00 0.00 0.00 0.00 0.00 0.00 0.00 0.00 0.00 0.00 0.00 0.00 0.00 0.00 0.00 0.01 0.01 0.00
0.00 0.00 0.00 0.05 0.04 0.02 0.04 0.00 0.00 0.00 0.00 0.00 0.00 0.00 0.00 0.00 0.00 0.00 0.00 0.00 0.00 0.00 0.00 0.00 0.00 0.01 0.00 0.00 0.01 0.02 0.01 0.01
0.00 0.00 0.01 0.05 0.05 0.01 0.00 0.00 0.00 0.00 0.01 0.00 0.00 0.00 0.00 0.00 0.00 0.00 0.00 0.00 0.00 0.00 0.00 0.01 0.03 0.02 0.02 0.03 0.05 0.04 0.04 0.03
0.00 0.00 0.00 0.00 0.01 0.00 0.00 0.00 0.00 0.00 0.01 0.00 0.00 0.00 0.00 0.00 0.00 0.00 0.00 0.00 0.00 0.00 0.02 0.02 0.01 0.02 0.03 0.03 0.02 0.03 0.03 0.03
0.00 0.00 0.00 0.00 0.00 0.00 0.00 0.00 0.00 0.00 0.00 0.00 0.00 0.00 0.00 0.00 0.00 0.00 0.00 0.00 0.00 0.01 0.00 0.01 0.01 0.00 0.01 0.02 0.04 0.05 0.05 0.04
0.00 0.00 0.00 0.00 0.00 0.00 0.00 0.00 0.00 0.00 0.00 0.00 0.00 0.00 0.00 0.00 0.00 0.00 0.00 0.00 0.00 0.00 0.01 0.00 0.00 0.01 0.03 0.05 0.05 0.03 0.03 0.02
0.00 0.00 0.00 0.00 0.00 0.00 0.00 0.00 0.00 0.00 0.00 0.00 0.00 0.00 0.00 0.00 0.00 0.00 0.00 0.00 0.01 0.01 0.00 0.00 0.00 0.01 0.02 0.02 0.01 0.00 0.00 0.00
0.00 0.00 0.00 0.00 0.00 0.00 0.00 0.00 0.00 0.00 0.00 0.00 0.01 0.01 0.01 0.00 0.00 0.01 0.01 0.02 0.03 0.00 0.00 0.01 0.01 0.00 0.00 0.00 0.00 0.00 0.00 0.01
0.00 0.00 0.00 0.00 0.00 0.01 0.01 0.01 0.00 0.00 0.00 0.00 0.00 0.01 0.01 0.02 0.04 0.02 0.03 0.02 0.00 0.01 0.01 0.00 0.00 0.02 0.00 0.00 0.00 0.01 0.01 0.00
0.00 0.00 0.02 0.01 0.01 0.01 0.01 0.00 0.00 0.00 0.00 0.00 0.01 0.01 0.03 0.04 0.02 0.04 0.02 0.01 0.00 0.00 0.00 0.01 0.04 0.03 0.00 0.00 0.00 0.00 0.00 0.00
0.00 0.00 0.00 0.01 0.01 0.00 0.00 0.00 0.00 0.00 0.00 0.00 0.01 0.01 0.02 0.02 0.04 0.02 0.00 0.01 0.00 0.00 0.00 0.01 0.01 0.00 0.00 0.00 0.00 0.00 0.00 0.00
0.00 0.00 0.00 0.00 0.00 0.00 0.00 0.01 0.00 0.00 0.00 0.00 0.00 0.01 0.01 0.04 0.03 0.02 0.03 0.01 0.00 0.00 0.00 0.00 0.00 0.00 0.00 0.00 0.00 0.00 0.00 0.00

GFSFLT1_prec_precacc_033.txt.gz
Total_Precipitation_Accumulation
0.02 0.07 0.04 0.02 0.02 0.24 0.63 0.66 0.81 0.72 0.41 0.23 0.14 0.12 0.05 0.02 0.01 0.00 0.00 0.00 0.00 0.00 0.00 0.00 0.00 0.00 0.00 0.00 0.00 0.00 0.00 0.00
0.04 0.07 0.08 0.05 0.06 0.26 0.38 0.56 0.58 0.26 0.13 0.14 0.12 0.06 0.03 0.01 0.00 0.00 0.00 0.00 0.00 0.00 0.00 0.00 0.00 0.00 0.00 0.00 0.00 0.00 0.00 0.00
0.01 0.03 0.05 0.07 0.14 0.36 0.46 0.31 0.16 0.04 0.07 0.07 0.04 0.02 0.01 0.00 0.00 0.00 0.00 0.00 0.00 0.00 0.00 0.00 0.00 0.00 0.00 0.00 0.00 0.00 0.00 0.00
0.02 0.04 0.03 0.05 0.07 0.11 0.23 0.13 0.06 0.01 0.02 0.01 0.01 0.00 0.00 0.00 0.00 0.00 0.00 0.00 0.00 0.00 0.00 0.00 0.00 0.00 0.00 0.00 0.00 0.00 0.00 0.00
0.00 0.00 0.00 0.03 0.03 0.05 0.22 0.13 0.05 0.03 0.02 0.00 0.02 0.04 0.01 0.00 0.00 0.00 0.00 0.00 0.00 0.00 0.00 0.00 0.00 0.00 0.00 0.00 0.00 0.00 0.00 0.00
0.01 0.01 0.00 0.00 0.06 0.07 0.19 0.15 0.15 0.07 0.05 0.05 0.11 0.04 0.00 0.00 0.00 0.00 0.00 0.00 0.00 0.00 0.00 0.00 0.00 0.00 0.00 0.00 0.00 0.00 0.00 0.00
0.02 0.01 0.01 0.01 0.02 0.10 0.16 0.11 0.15 0.08 0.06 0.07 0.05 0.02 0.00 0.00 0.00 0.00 0.00 0.00 0.00 0.00 0.00 0.00 0.00 0.00 0.00 0.00 0.00 0.00 0.00 0.00
0.01 0.00 0.00 0.01 0.02 0.15 0.13 0.04 0.07 0.04 0.01 0.01 0.00 0.00 0.00 0.00 0.00 0.00 0.00 0.00 0.00 0.00 0.00 0.00 0.00 0.00 0.00 0.00 0.00 0.01 0.01 0.00
0.00 0.00 0.00 0.06 0.06 0.11 0.20 0.06 0.03 0.00 0.00 0.01 0.02 0.04 0.04 0.05 0.03 0.00 0.00 0.00 0.00 0.00 0.00 0.00 0.00 0.01 0.00 0.00 0.01 0.02 0.01 0.01
0.00 0.00 0.01 0.05 0.08 0.10 0.06 0.02 0.01 0.01 0.01 0.00 0.01 0.02 0.02 0.02 0.01 0.00 0.00 0.00 0.00 0.00 0.00 0.01 0.03 0.02 0.02 0.03 0.05 0.04 0.04 0.03
0.00 0.00 0.00 0.01 0.02 0.04 0.02 0.00 0.00 0.00 0.01 0.01 0.00 0.01 0.01 0.00 0.00 0.00 0.00 0.00 0.00 0.00 0.02 0.02 0.01 0.02 0.03 0.03 0.02 0.03 0.03 0.03
0.00 0.00 0.00 0.00 0.00 0.00 0.00 0.00 0.00 0.00 0.01 0.01 0.01 0.00 0.00 0.00 0.00 0.00 0.00 0.00 0.00 0.01 0.00 0.01 0.01 0.00 0.01 0.02 0.04 0.05 0.05 0.04
0.00 0.00 0.00 0.00 0.00 0.00 0.00 0.00 0.00 0.00 0.01 0.01 0.01 0.00 0.00 0.00 0.00 0.00 0.00 0.00 0.00 0.00 0.01 0.00 0.00 0.01 0.03 0.05 0.05 0.03 0.03 0.02
0.00 0.00 0.00 0.00 0.00 0.00 0.01 0.01 0.01 0.01 0.01 0.01 0.00 0.00 0.00 0.00 0.00 0.00 0.00 0.00 0.01 0.01 0.00 0.00 0.00 0.01 0.02 0.02 0.01 0.00 0.00 0.00
0.00 0.00 0.00 0.00 0.01 0.01 0.01 0.02 0.02 0.02 0.01 0.01 0.01 0.01 0.01 0.00 0.00 0.01 0.01 0.02 0.03 0.00 0.00 0.01 0.01 0.00 0.00 0.00 0.00 0.00 0.00 0.01
0.01 0.01 0.01 0.00 0.02 0.02 0.03 0.02 0.02 0.01 0.00 0.00 0.00 0.01 0.01 0.02 0.04 0.02 0.03 0.02 0.00 0.01 0.01 0.00 0.00 0.02 0.00 0.00 0.00 0.01 0.01 0.00
0.00 0.00 0.02 0.01 0.01 0.01 0.03 0.02 0.01 0.01 0.00 0.00 0.01 0.01 0.03 0.04 0.02 0.04 0.02 0.01 0.00 0.00 0.00 0.01 0.04 0.03 0.00 0.00 0.00 0.00 0.00 0.00
0.00 0.00 0.00 0.01 0.01 0.00 0.00 0.00 0.00 0.00 0.00 0.00 0.01 0.01 0.02 0.02 0.04 0.02 0.00 0.02 0.02 0.01 0.01 0.01 0.01 0.00 0.00 0.00 0.00 0.00 0.00 0.00
0.00 0.00 0.00 0.00 0.00 0.00 0.00 0.01 0.01 0.00 0.00 0.00 0.00 0.01 0.01 0.04 0.03 0.03 0.06 0.06 0.03 0.01 0.00 0.00 0.00 0.00 0.00 0.00 0.00 0.00 0.00 0.00

GFSFLT1_prec_precacc_036.txt.gz
Total_Precipitation_Accumulation
0.02 0.07 0.04 0.02 0.02 0.24 0.63 0.66 0.81 0.72 0.41 0.23 0.14 0.14 0.06 0.07 0.04 0.00 0.00 0.00 0.00 0.00 0.00 0.00 0.00 0.00 0.00 0.00 0.00 0.00 0.00 0.00
0.04 0.07 0.08 0.05 0.06 0.26 0.38 0.56 0.58 0.26 0.13 0.14 0.12 0.08 0.07 0.02 0.01 0.00 0.00 0.00 0.00 0.00 0.00 0.00 0.00 0.00 0.00 0.00 0.00 0.00 0.00 0.00
0.01 0.03 0.05 0.07 0.14 0.36 0.46 0.31 0.16 0.04 0.07 0.07 0.04 0.02 0.01 0.00 0.00 0.00 0.00 0.00 0.00 0.00 0.00 0.00 0.00 0.00 0.00 0.00 0.00 0.00 0.00 0.00
0.02 0.04 0.03 0.05 0.07 0.11 0.23 0.13 0.06 0.01 0.02 0.01 0.01 0.01 0.00 0.00 0.00 0.00 0.00 0.00 0.00 0.00 0.00 0.00 0.00 0.00 0.00 0.00 0.00 0.00 0.00 0.00
0.00 0.00 0.00 0.03 0.03 0.05 0.22 0.13 0.05 0.03 0.03 0.00 0.02 0.06 0.02 0.00 0.00 0.00 0.00 0.00 0.00 0.00 0.00 0.00 0.00 0.00 0.00 0.00 0.00 0.00 0.00 0.00
0.01 0.01 0.00 0.00 0.06 0.08 0.19 0.15 0.15 0.07 0.06 0.07 0.15 0.11 0.08 0.03 0.00 0.00 0.00 0.00 0.00 0.00 0.00 0.00 0.00 0.00 0.00 0.00 0.00 0.00 0.00 0.00
0.02 0.01 0.01 0.01 0.02 0.11 0.18 0.13 0.18 0.10 0.08 0.13 0.11 0.08 0.06 0.03 0.01 0.00 0.00 0.00 0.00 0.00 0.00 0.00 0.00 0.00 0.00 0.00 0.00 0.00 0.00 0.00
0.01 0.00 0.00 0.02 0.02 0.15 0.18 0.15 0.16 0.10 0.10 0.04 0.06 0.08 0.05 0.03 0.01 0.01 0.00 0.01 0.01 0.00 0.00 0.00 0.00 0.00 0.00 0.00 0.00 0.01 0.01 0.00
0.00 0.00 0.01 0.08 0.07 0.12 0.26 0.23 0.24 0.15 0.09 0.08 0.07 0.11 0.10 0.11 0.07 0.03 0.02 0.01 0.00 0.00 0.00 0.02 0.02 0.01 0.00 0.00 0.01 0.02 0.01 0.01
0.00 0.00 0.01 0.06 0.09 0.11 0.16 0.12 0.15 0.09 0.06 0.04 0.04 0.05 0.10 0.09 0.09 0.04 0.01 0.00 0.00 0.01 0.01 0.02 0.03 0.02 0.02 0.03 0.05 0.04 0.04 0.03
0.00 0.00 0.00 0.01 0.03 0.05 0.10 0.04 0.01 0.03 0.03 0.02 0.02 0.05 0.07 0.06 0.03 0.01 0.00 0.00 0.00 0.01 0.02 0.02 0.01 0.02 0.03 0.03 0.02 0.03 0.03 0.03
0.00 0.00 0.00 0.00 0.00 0.00 0.00 0.00 0.00 0.01 0.01 0.01 0.02 0.04 0.07 0.05 0.03 0.01 0.00 0.00 0.00 0.01 0.00 0.01 0.01 0.00 0.01 0.02 0.04 0.05 0.05 0.04
0.00 0.00 0.00 0.00 0.00 0.00 0.01 0.02 0.02 0.04 0.04 0.05 0.05 0.04 0.03 0.01 0.00 0.00 0.00 0.00 0.00 0.00 0.01 0.00 0.00 0.01 0.03 0.05 0.05 0.03 0.03 0.02
0.00 0.00 0.00 0.00 0.01 0.05 0.06 0.05 0.04 0.05 0.06 0.06 0.03 0.01 0.01 0.01 0.00 0.00 0.00 0.00 0.01 0.01 0.00 0.00 0.00 0.01 0.02 0.02 0.01 0.00 0.00 0.00
0.00 0.00 0.00 0.01 0.08 0.07 0.04 0.05 0.05 0.06 0.04 0.02 0.02 0.01 0.01 0.00 0.00 0.01 0.01 0.02 0.03 0.00 0.00 0.01 0.01 0.00 0.00 0.00 0.00 0.00 0.00 0.01
0.01 0.01 0.01 0.02 0.06 0.04 0.05 0.04 0.04 0.03 0.01 0.01 0.01 0.01 0.01 0.02 0.04 0.02 0.03 0.02 0.00 0.01 0.01 0.01 0.01 0.03 0.00 0.00 0.00 0.01 0.01 0.00
0.00 0.00 0.02 0.02 0.02 0.02 0.04 0.02 0.01 0.01 0.01 0.00 0.01 0.02 0.04 0.04 0.02 0.04 0.02 0.01 0.00 0.00 0.02 0.05 0.07 0.04 0.00 0.00 0.00 0.00 0.00 0.00
0.00 0.00 0.00 0.01 0.01 0.00 0.00 0.00 0.00 0.00 0.00 0.00 0.01 0.02 0.02 0.02 0.04 0.02 0.00 0.02 0.04 0.06 0.07 0.05 0.02 0.00 0.00 0.00 0.00 0.00 0.00 0.00
0.00 0.00 0.00 0.00 0.00 0.00 0.00 0.01 0.01 0.00 0.00 0.00 0.01 0.01 0.02 0.04 0.04 0.03 0.08 0.11 0.14 0.09 0.03 0.01 0.00 0.00 0.00 0.00 0.00 0.00 0.00 0.00

GFSFLT1_prec_precacc_042.txt.gz
Total_Precipitation_Accumulation
0.03 0.08 0.04 0.02 0.02 0.24 0.63 0.66 0.81 0.75 0.44 0.23 0.14 0.14 0.06 0.11 0.09 0.08 0.07 0.03 0.01 0.00 0.00 0.00 0.00 0.00 0.00 0.00 0.00 0.00 0.00 0.00
0.04 0.07 0.08 0.05 0.06 0.26 0.38 0.56 0.58 0.27 0.14 0.14 0.12 0.08 0.08 0.09 0.09 0.06 0.03 0.01 0.00 0.00 0.00 0.00 0.00 0.00 0.00 0.00 0.00 0.00 0.00 0.00
0.01 0.03 0.05 0.07 0.14 0.36 0.46 0.31 0.16 0.04 0.07 0.07 0.04 0.02 0.03 0.04 0.07 0.02 0.01 0.01 0.00 0.00 0.00 0.00 0.00 0.00 0.00 0.00 0.00 0.00 0.00 0.00
0.02 0.04 0.03 0.05 0.07 0.11 0.23 0.13 0.06 0.01 0.02 0.01 0.01 0.01 0.01 0.06 0.07 0.08 0.04 0.02 0.00 0.00 0.00 0.00 0.00 0.00 0.00 0.00 0.00 0.00 0.00 0.00
0.00 0.00 0.00 0.03 0.03 0.05 0.22 0.13 0.05 0.03 0.03 0.00 0.02 0.06 0.03 0.04 0.04 0.03 0.02 0.01 0.00 0.00 0.00 0.00 0.00 0.00 0.00 0.00 0.00 0.00 0.00 0.00
0.01 0.01 0.00 0.00 0.06 0.08 0.19 0.15 0.15 0.08 0.08 0.11 0.19 0.14 0.12 0.11 0.03 0.01 0.02 0.02 0.02 0.01 0.00 0.00 0.00 0.00 0.00 0.00 0.00 0.00 0.01 0.01
0.02 0.01 0.01 0.01 0.02 0.11 0.18 0.13 0.20 0.22 0.26 0.19 0.16 0.13 0.08 0.08 0.03 0.02 0.01 0.01 0.02 0.02 0.01 0.00 0.00 0.00 0.00 0.00 0.02 0.02 0.00 0.00
0.01 0.00 0.00 0.02 0.02 0.15 0.18 0.15 0.20 0.22 0.28 0.14 0.16 0.17 0.12 0.12 0.08 0.06 0.05 0.07 0.06 0.03 0.01 0.00 0.00 0.01 0.02 0.02 0.01 0.01 0.01 0.00
0.00 0.00 0.01 0.08 0.07 0.12 0.26 0.23 0.30 0.22 0.14 0.14 0.16 0.24 0.29 0.30 0.20 0.14 0.09 0.06 0.03 0.01 0.01 0.02 0.02 0.02 0.01 0.01 0.01 0.02 0.01 0.01
0.00 0.00 0.01 0.06 0.10 0.12 0.16 0.12 0.24 0.23 0.24 0.21 0.11 0.12 0.17 0.16 0.15 0.08 0.05 0.03 0.01 0.01 0.02 0.02 0.03 0.02 0.02 0.03 0.05 0.04 0.04 0.03
0.00 0.00 0.00 0.01 0.03 0.05 0.15 0.06 0.02 0.10 0.19 0.20 0.11 0.09 0.12 0.11 0.09 0.09 0.07 0.04 0.02 0.01 0.02 0.02 0.01 0.02 0.03 0.03 0.02 0.03 0.03 0.03
0.00 0.00 0.00 0.00 0.00 0.00 0.00 0.01 0.01 0.02 0.04 0.05 0.05 0.10 0.15 0.17 0.19 0.12 0.07 0.04 0.02 0.01 0.01 0.01 0.01 0.01 0.01 0.02 0.04 0.06 0.05 0.04
0.00 0.00 0.00 0.00 0.00 0.00 0.01 0.02 0.03 0.06 0.08 0.10 0.11 0.13 0.13 0.13 0.12 0.09 0.05 0.02 0.01 0.00 0.01 0.00 0.00 0.01 0.03 0.05 0.05 0.04 0.05 0.02
0.00 0.00 0.00 0.00 0.01 0.05 0.08 0.08 0.10 0.09 0.11 0.10 0.08 0.07 0.09 0.12 0.10 0.07 0.04 0.01 0.01 0.02 0.00 0.01 0.01 0.01 0.02 0.03 0.04 0.05 0.03 0.00
0.00 0.00 0.00 0.01 0.08 0.09 0.09 0.09 0.11 0.12 0.09 0.05 0.05 0.05 0.04 0.03 0.02 0.02 0.02 0.03 0.03 0.01 0.01 0.02 0.01 0.00 0.03 0.06 0.09 0.05 0.00 0.01
0.01 0.01 0.01 0.02 0.06 0.05 0.07 0.06 0.06 0.05 0.03 0.02 0.02 0.03 0.03 0.02 0.04 0.02 0.03 0.02 0.00 0.01 0.02 0.02 0.03 0.07 0.11 0.11 0.04 0.02 0.01 0.00
0.00 0.00 0.02 0.02 0.02 0.02 0.05 0.03 0.02 0.02 0.01 0.00 0.01 0.02 0.04 0.04 0.02 0.04 0.02 0.01 0.01 0.02 0.04 0.07 0.17 0.20 0.07 0.02 0.01 0.00 0.00 0.00
0.00 0.00 0.00 0.01 0.01 0.00 0.00 0.00 0.00 0.00 0.00 0.00 0.01 0.02 0.02 0.02 0.04 0.02 0.01 0.04 0.07 0.12 0.21 0.24 0.13 0.02 0.03 0.02 0.01 0.00 0.00 0.00
0.00 0.00 0.00 0.00 0.00 0.00 0.00 0.01 0.01 0.00 0.00 0.00 0.01 0.01 0.02 0.04 0.04 0.04 0.11 0.18 0.23 0.21 0.10 0.02 0.00 0.01 0.02 0.00 0.00 0.00 0.00 0.00

GFSFLT1_prec_precacc_045.txt.gz
Total_Precipitation_Accumulation
0.03 0.08 0.04 0.02 0.02 0.24 0.63 0.66 0.82 0.82 0.48 0.23 0.14 0.14 0.06 0.11 0.10 0.08 0.08 0.04 0.01 0.00 0.00 0.00 0.00 0.00 0.00 0.00 0.00 0.00 0.00 0.00
0.04 0.07 0.08 0.05 0.06 0.26 0.38 0.56 0.59 0.33 0.18 0.15 0.12 0.08 0.08 0.09 0.11 0.08 0.04 0.02 0.00 0.00 0.00 0.00 0.00 0.00 0.00 0.00 0.00 0.00 0.00 0.00
0.01 0.03 0.05 0.07 0.14 0.36 0.46 0.31 0.17 0.07 0.11 0.07 0.04 0.02 0.03 0.04 0.07 0.03 0.02 0.01 0.00 0.00 0.00 0.00 0.00 0.00 0.00 0.00 0.00 0.00 0.00 0.00
0.02 0.04 0.03 0.05 0.07 0.11 0.23 0.13 0.06 0.01 0.02 0.01 0.01 0.01 0.01 0.06 0.07 0.08 0.04 0.02 0.01 0.00 0.00 0.00 0.00 0.00 0.00 0.00 0.00 0.00 0.00 0.00
0.00 0.00 0.00 0.03 0.03 0.05 0.22 0.13 0.05 0.03 0.03 0.00 0.02 0.06 0.03 0.04 0.04 0.04 0.02 0.01 0.00 0.00 0.00 0.00 0.00 0.00 0.00 0.00 0.00 0.00 0.00 0.00
0.01 0.01 0.00 0.00 0.06 0.08 0.19 0.15 0.15 0.08 0.08 0.11 0.19 0.14 0.12 0.11 0.03 0.03 0.02 0.03 0.04 0.04 0.03 0.02 0.01 0.00 0.00 0.00 0.00 0.00 0.01 0.01
0.02 0.01 0.01 0.01 0.02 0.11 0.18 0.13 0.20 0.22 0.26 0.19 0.16 0.13 0.11 0.14 0.11 0.04 0.02 0.03 0.04 0.05 0.04 0.02 0.01 0.00 0.00 0.00 0.02 0.02 0.00 0.00
0.01 0.00 0.00 0.02 0.02 0.15 0.18 0.15 0.20 0.22 0.28 0.14 0.17 0.21 0.23 0.31 0.26 0.14 0.08 0.10 0.10 0.07 0.03 0.01 0.01 0.01 0.02 0.02 0.01 0.01 0.01 0.00
0.00 0.00 0.01 0.08 0.07 0.12 0.26 0.23 0.30 0.22 0.15 0.16 0.19 0.27 0.31 0.36 0.35 0.31 0.19 0.15 0.11 0.06 0.02 0.03 0.03 0.03 0.01 0.01 0.01 0.02 0.01 0.01
0.00 0.00 0.01 0.06 0.10 0.12 0.16 0.12 0.24 0.23 0.25 0.28 0.18 0.12 0.17 0.19 0.21 0.16 0.13 0.08 0.04 0.02 0.02 0.02 0.03 0.02 0.02 0.03 0.05 0.04 0.04 0.03
0.00 0.00 0.00 0.01 0.03 0.05 0.15 0.06 0.02 0.10 0.19 0.20 0.12 0.09 0.12 0.12 0.11 0.10 0.07 0.04 0.02 0.02 0.02 0.02 0.01 0.02 0.03 0.03 0.02 0.03 0.03 0.03
0.00 0.00 0.00 0.00 0.00 0.00 0.00 0.01 0.01 0.02 0.04 0.05 0.06 0.11 0.16 0.18 0.23 0.15 0.07 0.04 0.02 0.01 0.01 0.01 0.02 0.02 0.01 0.02 0.04 0.06 0.05 0.05
0.00 0.00 0.00 0.00 0.00 0.00 0.01 0.02 0.03 0.06 0.08 0.11 0.12 0.14 0.13 0.14 0.13 0.09 0.05 0.02 0.01 0.01 0.01 0.01 0.01 0.01 0.03 0.05 0.05 0.04 0.06 0.08
0.00 0.00 0.00 0.00 0.01 0.05 0.08 0.08 0.10 0.09 0.11 0.11 0.09 0.09 0.10 0.12 0.10 0.07 0.04 0.02 0.02 0.02 0.01 0.01 0.01 0.02 0.02 0.03 0.04 0.08 0.14 0.07
0.00 0.00 0.00 0.01 0.08 0.09 0.09 0.09 0.11 0.12 0.09 0.06 0.05 0.06 0.05 0.03 0.03 0.03 0.02 0.03 0.03 0.01 0.02 0.02 0.01 0.01 0.04 0.08 0.13 0.11 0.02 0.01
0.01 0.01 0.01 0.02 0.06 0.05 0.07 0.07 0.08 0.08 0.06 0.05 0.05 0.04 0.04 0.03 0.05 0.02 0.03 0.02 0.00 0.01 0.02 0.03 0.05 0.10 0.13 0.13 0.05 0.02 0.01 0.00
0.00 0.00 0.02 0.02 0.02 0.02 0.06 0.05 0.06 0.05 0.02 0.02 0.02 0.02 0.04 0.04 0.02 0.04 0.02 0.01 0.01 0.02 0.04 0.08 0.18 0.20 0.07 0.02 0.01 0.00 0.00 0.00
0.00 0.00 0.00 0.01 0.01 0.01 0.02 0.02 0.02 0.01 0.00 0.00 0.01 0.02 0.02 0.02 0.04 0.02 0.01 0.04 0.07 0.12 0.21 0.24 0.13 0.02 0.03 0.02 0.01 0.00 0.00 0.00
0.00 0.00 0.00 0.00 0.00 0.00 0.00 0.01 0.01 0.00 0.00 0.00 0.01 0.01 0.02 0.04 0.04 0.04 0.11 0.18 0.23 0.21 0.10 0.02 0.00 0.01 0.02 0.00 0.00 0.00 0.00 0.00

GFSFLT1_prec_precacc_048.txt.gz
Total_Precipitation_Accumulation
0.03 0.08 0.04 0.02 0.02 0.24 0.63 0.66 0.83 0.86 0.52 0.26 0.14 0.14 0.06 0.11 0.10 0.08 0.08 0.05 0.02 0.01 0.02 0.02 0.01 0.00 0.00 0.00 0.00 0.00 0.00 0.00
0.04 0.07 0.08 0.05 0.06 0.26 0.38 0.56 0.59 0.36 0.22 0.16 0.12 0.08 0.08 0.09 0.11 0.08 0.05 0.02 0.01 0.00 0.02 0.01 0.01 0.00 0.00 0.00 0.00 0.00 0.00 0.00
0.01 0.03 0.05 0.07 0.14 0.36 0.46 0.31 0.17 0.09 0.15 0.08 0.04 0.02 0.03 0.04 0.07 0.03 0.03 0.05 0.01 0.00 0.01 0.01 0.00 0.00 0.00 0.00 0.00 0.00 0.00 0.00
0.02 0.04 0.03 0.05 0.07 0.11 0.23 0.13 0.06 0.01 0.03 0.02 0.02 0.01 0.01 0.06 0.07 0.08 0.04 0.04 0.03 0.01 0.00 0.01 0.00 0.00 0.00 0.00 0.00 0.00 0.00 0.00
0.00 0.00 0.00 0.03 0.03 0.05 0.22 0.13 0.05 0.03 0.03 0.01 0.02 0.06 0.03 0.04 0.04 0.04 0.02 0.02 0.02 0.04 0.02 0.01 0.00 0.01 0.00 0.00 0.00 0.00 0.00 0.00
0.01 0.01 0.00 0.00 0.06 0.08 0.19 0.15 0.15 0.08 0.08 0.11 0.20 0.14 0.12 0.11 0.04 0.06 0.03 0.05 0.05 0.07 0.05 0.04 0.04 0.03 0.01 0.00 0.00 0.00 0.01 0.01
0.02 0.01 0.01 0.01 0.02 0.11 0.18 0.13 0.20 0.22 0.26 0.19 0.19 0.18 0.11 0.14 0.13 0.16 0.12 0.06 0.04 0.09 0.06 0.04 0.03 0.02 0.01 0.01 0.02 0.02 0.00 0.00
0.01 0.00 0.00 0.02 0.02 0.15 0.18 0.15 0.20 0.22 0.28 0.15 0.17 0.26 0.26 0.33 0.35 0.37 0.42 0.62 0.47 0.13 0.05 0.02 0.02 0.03 0.03 0.02 0.01 0.01 0.01 0.01
0.00 0.00 0.01 0.08 0.07 0.12 0.26 0.23 0.30 0.22 0.15 0.18 0.23 0.29 0.36 0.47 0.40 0.45 0.57 0.37 0.22 0.10 0.07 0.06 0.05 0.04 0.02 0.01 0.02 0.02 0.02 0.03
0.00 0.00 0.01 0.06 0.10 0.12 0.16 0.12 0.24 0.23 0.25 0.32 0.23 0.16 0.17 0.23 0.23 0.16 0.15 0.15 0.11 0.08 0.06 0.04 0.04 0.02 0.02 0.04 0.05 0.05 0.05 0.03
0.00 0.00 0.00 0.01 0.03 0.05 0.15 0.06 0.03 0.10 0.20 0.20 0.13 0.12 0.14 0.13 0.12 0.10 0.11 0.10 0.05 0.03 0.03 0.03 0.01 0.02 0.04 0.04 0.04 0.04 0.04 0.03
0.00 0.00 0.00 0.00 0.00 0.00 0.00 0.01 0.02 0.06 0.05 0.05 0.06 0.14 0.18 0.19 0.24 0.17 0.12 0.07 0.03 0.01 0.01 0.01 0.02 0.02 0.01 0.02 0.05 0.06 0.06 0.05
0.00 0.00 0.00 0.00 0.00 0.00 0.01 0.02 0.04 0.23 0.12 0.15 0.16 0.19 0.15 0.19 0.17 0.15 0.11 0.03 0.01 0.01 0.01 0.01 0.01 0.01 0.04 0.05 0.05 0.04 0.06 0.13
0.00 0.00 0.00 0.00 0.01 0.05 0.08 0.08 0.10 0.20 0.19 0.24 0.13 0.16 0.17 0.15 0.18 0.11 0.06 0.02 0.02 0.02 0.01 0.01 0.01 0.02 0.03 0.04 0.05 0.10 0.18 0.15
0.00 0.00 0.00 0.01 0.08 0.09 0.09 0.09 0.11 0.13 0.16 0.12 0.07 0.15 0.13 0.06 0.05 0.04 0.03 0.04 0.04 0.02 0.02 0.03 0.02 0.03 0.07 0.11 0.15 0.13 0.04 0.01
0.01 0.01 0.01 0.02 0.06 0.05 0.07 0.07 0.11 0.13 0.13 0.07 0.08 0.09 0.05 0.06 0.07 0.04 0.04 0.03 0.00 0.01 0.02 0.03 0.05 0.11 0.13 0.13 0.05 0.02 0.01 0.00
0.00 0.00 0.02 0.02 0.02 0.02 0.06 0.06 0.06 0.07 0.03 0.03 0.03 0.03 0.04 0.05 0.02 0.04 0.02 0.01 0.01 0.02 0.04 0.08 0.18 0.20 0.07 0.02 0.01 0.00 0.00 0.00
0.00 0.00 0.00 0.01 0.02 0.01 0.02 0.03 0.03 0.02 0.02 0.01 0.02 0.02 0.02 0.02 0.04 0.02 0.01 0.04 0.07 0.12 0.21 0.24 0.13 0.02 0.03 0.02 0.01 0.00 0.00 0.00
0.00 0.00 0.01 0.01 0.01 0.00 0.00 0.01 0.02 0.01 0.00 0.00 0.01 0.01 0.02 0.04 0.04 0.04 0.11 0.18 0.23 0.21 0.10 0.02 0.00 0.01 0.02 0.00 0.00 0.00 0.00 0.00

GFSFLT1_prec_precacc_051.txt.gz
Total_Precipitation_Accumulation
0.03 0.08 0.04 0.02 0.02 0.24 0.63 0.66 0.83 0.86 0.52 0.26 0.14 0.14 0.06 0.11 0.10 0.08 0.08 0.06 0.03 0.01 0.02 0.04 0.07 0.01 0.00 0.00 0.00 0.00 0.00 0.00
0.04 0.07 0.08 0.05 0.06 0.26 0.38 0.56 0.59 0.36 0.22 0.16 0.12 0.08 0.08 0.09 0.11 0.08 0.06 0.04 0.02 0.00 0.03 0.02 0.08 0.01 0.00 0.00 0.00 0.00 0.00 0.00
0.01 0.03 0.05 0.07 0.14 0.36 0.46 0.31 0.17 0.09 0.15 0.08 0.04 0.02 0.03 0.04 0.07 0.03 0.03 0.08 0.05 0.02 0.03 0.02 0.07 0.04 0.00 0.00 0.00 0.00 0.00 0.00
0.02 0.04 0.03 0.05 0.07 0.11 0.23 0.13 0.06 0.01 0.03 0.02 0.03 0.01 0.01 0.06 0.07 0.08 0.05 0.05 0.06 0.07 0.04 0.03 0.05 0.10 0.00 0.00 0.00 0.00 0.00 0.00
0.00 0.00 0.00 0.03 0.03 0.05 0.22 0.13 0.05 0.03 0.03 0.01 0.03 0.06 0.03 0.04 0.04 0.04 0.02 0.04 0.06 0.12 0.13 0.06 0.01 0.13 0.05 0.02 0.01 0.00 0.00 0.00
0.01 0.01 0.00 0.00 0.06 0.08 0.19 0.15 0.15 0.08 0.08 0.12 0.24 0.17 0.12 0.11 0.04 0.06 0.04 0.11 0.14 0.15 0.17 0.19 0.12 0.09 0.09 0.04 0.01 0.01 0.01 0.01
0.02 0.01 0.01 0.01 0.02 0.11 0.18 0.13 0.20 0.22 0.26 0.19 0.20 0.28 0.17 0.15 0.14 0.23 0.24 0.29 0.26 0.32 0.28 0.20 0.16 0.14 0.07 0.02 0.03 0.03 0.01 0.01
0.01 0.00 0.00 0.02 0.02 0.15 0.18 0.15 0.20 0.22 0.28 0.15 0.18 0.29 0.35 0.39 0.36 0.43 0.55 0.74 0.72 0.29 0.18 0.10 0.09 0.06 0.05 0.04 0.02 0.02 0.02 0.03
0.00 0.00 0.01 0.08 0.07 0.12 0.26 0.23 0.30 0.22 0.15 0.19 0.24 0.30 0.37 0.49 0.41 0.46 0.61 0.40 0.28 0.13 0.10 0.08 0.07 0.06 0.03 0.02 0.03 0.03 0.03 0.05
0.01 0.00 0.01 0.06 0.10 0.12 0.16 0.12 0.24 0.23 0.25 0.32 0.24 0.17 0.17 0.24 0.26 0.23 0.19 0.16 0.14 0.14 0.11 0.07 0.05 0.02 0.02 0.05 0.06 0.06 0.07 0.07
0.00 0.00 0.00 0.01 0.03 0.05 0.15 0.07 0.04 0.11 0.20 0.20 0.13 0.13 0.18 0.13 0.12 0.11 0.12 0.11 0.07 0.09 0.08 0.04 0.01 0.03 0.04 0.05 0.04 0.04 0.05 0.04
0.00 0.00 0.01 0.00 0.00 0.02 0.04 0.08 0.15 0.13 0.10 0.05 0.07 0.17 0.36 0.25 0.24 0.17 0.12 0.09 0.05 0.02 0.02 0.02 0.02 0.02 0.02 0.02 0.05 0.06 0.06 0.06
0.00 0.00 0.00 0.00 0.02 0.07 0.15 0.21 0.29 0.31 0.20 0.23 0.42 0.46 0.52 0.41 0.25 0.17 0.16 0.09 0.03 0.01 0.01 0.01 0.01 0.01 0.04 0.06 0.06 0.05 0.07 0.16
0.00 0.00 0.00 0.00 0.01 0.07 0.15 0.16 0.22 0.40 0.42 0.48 0.45 0.31 0.25 0.24 0.33 0.21 0.12 0.07 0.04 0.02 0.01 0.01 0.01 0.02 0.03 0.05 0.07 0.13 0.22 0.18
0.00 0.00 0.00 0.01 0.08 0.09 0.12 0.21 0.24 0.30 0.27 0.18 0.14 0.23 0.16 0.07 0.09 0.11 0.06 0.06 0.05 0.03 0.03 0.03 0.02 0.03 0.08 0.11 0.16 0.14 0.05 0.02
0.01 0.01 0.01 0.02 0.06 0.05 0.07 0.08 0.14 0.18 0.14 0.07 0.09 0.11 0.07 0.09 0.09 0.07 0.06 0.05 0.02 0.02 0.02 0.03 0.05 0.11 0.14 0.14 0.06 0.02 0.01 0.00
0.00 0.00 0.02 0.02 0.02 0.02 0.06 0.08 0.11 0.08 0.03 0.04 0.05 0.04 0.05 0.07 0.06 0.07 0.03 0.01 0.01 0.02 0.04 0.08 0.18 0.20 0.07 0.03 0.01 0.00 0.00 0.00
0.00 0.00 0.00 0.02 0.03 0.02 0.04 0.07 0.04 0.03 0.02 0.02 0.02 0.02 0.05 0.03 0.05 0.02 0.01 0.04 0.07 0.12 0.21 0.24 0.13 0.02 0.03 0.02 0.01 0.00 0.00 0.00
0.00 0.00 0.01 0.02 0.03 0.00 0.01 0.02 0.02 0.02 0.01 0.02 0.02 0.02 0.02 0.05 0.04 0.04 0.11 0.18 0.23 0.21 0.10 0.02 0.00 0.01 0.02 0.00 0.00 0.00 0.00 0.00

GFSFLT1_prec_precacc_054.txt.gz
Total_Precipitation_Accumulation
0.03 0.08 0.04 0.02 0.02 0.25 0.63 0.67 0.83 0.86 0.52 0.26 0.14 0.14 0.06 0.11 0.10 0.08 0.08 0.06 0.03 0.01 0.02 0.09 0.13 0.05 0.00 0.00 0.00 0.00 0.00 0.00
0.04 0.07 0.08 0.05 0.06 0.26 0.38 0.56 0.59 0.36 0.22 0.16 0.12 0.08 0.08 0.09 0.11 0.08 0.06 0.04 0.02 0.00 0.06 0.07 0.17 0.08 0.02 0.00 0.00 0.00 0.00 0.00
0.01 0.03 0.05 0.07 0.14 0.36 0.46 0.31 0.17 0.09 0.15 0.08 0.04 0.02 0.03 0.04 0.07 0.03 0.03 0.08 0.05 0.02 0.04 0.04 0.08 0.06 0.00 0.00 0.00 0.00 0.00 0.00
0.02 0.04 0.03 0.05 0.07 0.11 0.23 0.13 0.06 0.01 0.03 0.02 0.03 0.01 0.01 0.06 0.07 0.08 0.05 0.05 0.06 0.07 0.04 0.04 0.06 0.12 0.01 0.00 0.01 0.02 0.00 0.00
0.00 0.00 0.00 0.03 0.03 0.05 0.22 0.13 0.05 0.03 0.03 0.01 0.03 0.06 0.03 0.04 0.04 0.04 0.02 0.04 0.07 0.14 0.18 0.17 0.12 0.18 0.10 0.04 0.03 0.03 0.02 0.00
0.01 0.01 0.00 0.00 0.06 0.08 0.19 0.15 0.15 0.08 0.08 0.12 0.24 0.17 0.12 0.11 0.04 0.06 0.04 0.11 0.15 0.19 0.23 0.28 0.25 0.18 0.21 0.14 0.06 0.04 0.03 0.02
0.02 0.01 0.01 0.01 0.02 0.11 0.18 0.13 0.20 0.22 0.26 0.19 0.20 0.28 0.17 0.15 0.14 0.23 0.24 0.30 0.29 0.34 0.31 0.26 0.26 0.24 0.21 0.17 0.12 0.08 0.02 0.01
0.01 0.00 0.00 0.02 0.02 0.15 0.18 0.15 0.20 0.22 0.28 0.15 0.18 0.29 0.35 0.39 0.36 0.43 0.56 0.74 0.73 0.31 0.21 0.17 0.16 0.17 0.15 0.11 0.06 0.04 0.03 0.05
0.00 0.00 0.02 0.08 0.07 0.12 0.26 0.23 0.30 0.22 0.15 0.19 0.24 0.30 0.37 0.49 0.41 0.46 0.61 0.41 0.29 0.17 0.11 0.09 0.08 0.11 0.08 0.05 0.03 0.04 0.03 0.06
0.01 0.00 0.01 0.06 0.10 0.12 0.16 0.12 0.24 0.23 0.25 0.33 0.24 0.18 0.18 0.24 0.27 0.25 0.20 0.16 0.19 0.17 0.15 0.09 0.05 0.04 0.03 0.05 0.06 0.06 0.07 0.07
0.00 0.00 0.01 0.01 0.03 0.07 0.16 0.08 0.04 0.12 0.21 0.22 0.14 0.17 0.22 0.13 0.15 0.15 0.20 0.19 0.14 0.17 0.13 0.09 0.04 0.03 0.04 0.05 0.04 0.04 0.05 0.05
0.00 0.00 0.01 0.00 0.01 0.04 0.06 0.15 0.25 0.25 0.18 0.09 0.10 0.25 0.50 0.41 0.29 0.25 0.26 0.29 0.29 0.15 0.06 0.03 0.03 0.02 0.02 0.02 0.05 0.06 0.07 0.07
0.00 0.00 0.00 0.00 0.02 0.08 0.16 0.22 0.30 0.38 0.25 0.27 0.47 0.69 0.88 0.77 0.58 0.52 0.30 0.19 0.11 0.07 0.05 0.02 0.01 0.01 0.04 0.06 0.06 0.05 0.08 0.16
0.00 0.00 0.00 0.00 0.01 0.07 0.15 0.16 0.23 0.42 0.46 0.52 0.50 0.43 0.65 0.77 0.53 0.33 0.21 0.15 0.13 0.09 0.04 0.04 0.02 0.02 0.03 0.05 0.07 0.13 0.22 0.19
0.00 0.00 0.00 0.01 0.08 0.09 0.12 0.21 0.25 0.31 0.30 0.22 0.18 0.29 0.25 0.27 0.19 0.15 0.10 0.10 0.10 0.07 0.05 0.04 0.03 0.03 0.08 0.11 0.16 0.14 0.05 0.02
0.01 0.01 0.01 0.02 0.06 0.05 0.08 0.09 0.15 0.21 0.18 0.11 0.16 0.15 0.14 0.18 0.17 0.12 0.09 0.08 0.04 0.03 0.03 0.03 0.05 0.11 0.14 0.15 0.06 0.02 0.01 0.01
0.00 0.00 0.02 0.02 0.02 0.02 0.06 0.09 0.14 0.12 0.10 0.08 0.12 0.11 0.14 0.18 0.13 0.11 0.05 0.04 0.04 0.03 0.05 0.08 0.18 0.21 0.09 0.03 0.02 0.00 0.00 0.00
0.00 0.00 0.00 0.02 0.03 0.02 0.04 0.07 0.05 0.05 0.05 0.05 0.07 0.08 0.10 0.10 0.11 0.05 0.04 0.06 0.08 0.13 0.22 0.25 0.13 0.02 0.04 0.02 0.01 0.00 0.00 0.00
0.00 0.00 0.01 0.02 0.03 0.00 0.01 0.02 0.03 0.03 0.02 0.04 0.05 0.06 0.07 0.08 0.07 0.07 0.13 0.18 0.23 0.21 0.11 0.02 0.00 0.01 0.02 0.00 0.00 0.00 0.00 0.00

GFSFLT1_prec_precacc_057.txt.gz
Total_Precipitation_Accumulation
0.03 0.08 0.04 0.03 0.03 0.26 0.69 0.74 0.91 0.90 0.53 0.28 0.15 0.14 0.06 0.11 0.10 0.09 0.11 0.08 0.03 0.02 0.03 0.09 0.16 0.06 0.02 0.00 0.00 0.00 0.00 0.00
0.04 0.07 0.08 0.05 0.06 0.26 0.39 0.59 0.64 0.40 0.23 0.17 0.13 0.08 0.08 0.09 0.11 0.08 0.06 0.05 0.03 0.02 0.06 0.07 0.17 0.08 0.02 0.00 0.00 0.00 0.00 0.00
0.01 0.03 0.05 0.07 0.14 0.36 0.46 0.31 0.18 0.10 0.16 0.08 0.04 0.02 0.03 0.04 0.07 0.03 0.03 0.08 0.05 0.03 0.04 0.04 0.08 0.07 0.01 0.00 0.00 0.00 0.00 0.00
0.02 0.04 0.03 0.05 0.07 0.11 0.23 0.13 0.06 0.01 0.03 0.02 0.03 0.01 0.01 0.06 0.07 0.08 0.05 0.05 0.06 0.07 0.04 0.04 0.06 0.12 0.01 0.01 0.01 0.02 0.02 0.00
0.00 0.00 0.00 0.03 0.03 0.05 0.22 0.13 0.05 0.03 0.03 0.01 0.03 0.06 0.03 0.04 0.04 0.04 0.02 0.04 0.07 0.14 0.18 0.17 0.12 0.18 0.10 0.05 0.04 0.04 0.05 0.03
0.01 0.01 0.00 0.00 0.06 0.08 0.19 0.15 0.15 0.08 0.08 0.12 0.24 0.17 0.12 0.11 0.04 0.06 0.04 0.11 0.15 0.19 0.23 0.28 0.25 0.19 0.22 0.18 0.11 0.08 0.06 0.06
0.02 0.01 0.01 0.01 0.02 0.11 0.18 0.13 0.20 0.22 0.26 0.19 0.20 0.28 0.17 0.15 0.14 0.23 0.24 0.30 0.29 0.34 0.31 0.26 0.27 0.25 0.24 0.22 0.20 0.21 0.19 0.15
0.01 0.00 0.00 0.02 0.02 0.15 0.18 0.15 0.20 0.22 0.28 0.15 0.18 0.29 0.35 0.39 0.36 0.43 0.56 0.74 0.73 0.31 0.21 0.18 0.18 0.22 0.21 0.13 0.09 0.09 0.10 0.10
0.00 0.00 0.02 0.08 0.07 0.12 0.26 0.23 0.30 0.22 0.15 0.19 0.24 0.30 0.37 0.49 0.41 0.46 0.61 0.41 0.29 0.18 0.12 0.11 0.12 0.14 0.11 0.05 0.04 0.04 0.04 0.06
0.01 0.00 0.01 0.07 0.10 0.12 0.16 0.12 0.24 0.23 0.25 0.33 0.24 0.18 0.18 0.25 0.30 0.25 0.22 0.20 0.20 0.19 0.16 0.12 0.10 0.11 0.10 0.07 0.08 0.08 0.08 0.08
0.00 0.00 0.01 0.03 0.04 0.08 0.17 0.08 0.04 0.12 0.21 0.22 0.14 0.17 0.22 0.14 0.15 0.18 0.26 0.33 0.27 0.35 0.23 0.15 0.10 0.08 0.09 0.08 0.06 0.05 0.05 0.05
0.00 0.00 0.01 0.01 0.01 0.05 0.10 0.20 0.30 0.26 0.18 0.09 0.10 0.25 0.51 0.42 0.32 0.28 0.31 0.42 0.46 0.54 0.26 0.11 0.12 0.14 0.08 0.04 0.05 0.06 0.07 0.07
0.00 0.00 0.00 0.00 0.02 0.08 0.16 0.26 0.37 0.46 0.29 0.28 0.49 0.69 0.89 0.80 0.63 0.75 0.53 0.29 0.16 0.17 0.16 0.11 0.08 0.10 0.12 0.11 0.07 0.05 0.08 0.16
0.00 0.00 0.00 0.00 0.01 0.07 0.15 0.16 0.23 0.44 0.51 0.58 0.55 0.47 0.67 0.82 0.66 0.48 0.32 0.19 0.17 0.12 0.10 0.09 0.08 0.09 0.07 0.08 0.08 0.14 0.23 0.20
0.00 0.00 0.00 0.01 0.08 0.09 0.12 0.21 0.25 0.31 0.30 0.23 0.20 0.31 0.27 0.31 0.31 0.29 0.16 0.12 0.11 0.10 0.10 0.09 0.08 0.07 0.10 0.13 0.17 0.15 0.06 0.02
0.01 0.01 0.01 0.02 0.06 0.05 0.08 0.09 0.15 0.21 0.18 0.11 0.17 0.18 0.17 0.20 0.22 0.17 0.16 0.13 0.07 0.06 0.06 0.07 0.09 0.13 0.16 0.15 0.07 0.03 0.01 0.01
0.00 0.00 0.02 0.02 0.02 0.02 0.06 0.09 0.14 0.12 0.10 0.08 0.13 0.13 0.17 0.22 0.15 0.12 0.08 0.10 0.09 0.06 0.09 0.12 0.21 0.22 0.10 0.04 0.02 0.00 0.00 0.00
0.00 0.00 0.00 0.02 0.03 0.02 0.04 0.07 0.05 0.05 0.05 0.05 0.08 0.09 0.14 0.14 0.15 0.09 0.08 0.14 0.15 0.16 0.25 0.27 0.15 0.03 0.06 0.03 0.01 0.00 0.00 0.00
0.00 0.00 0.01 0.02 0.03 0.00 0.01 0.02 0.03 0.03 0.02 0.04 0.05 0.07 0.10 0.12 0.12 0.10 0.17 0.22 0.27 0.26 0.15 0.05 0.02 0.03 0.04 0.01 0.00 0.00 0.00 0.00

GFSFLT1_prec_precacc_060.txt.gz
Total_Precipitation_Accumulation
0.03 0.08 0.04 0.03 0.09 0.32 0.76 0.83 0.97 0.93 0.55 0.29 0.16 0.14 0.06 0.12 0.11 0.09 0.11 0.08 0.03 0.02 0.04 0.11 0.17 0.08 0.04 0.01 0.01 0.00 0.00 0.00
0.04 0.07 0.08 0.05 0.07 0.27 0.41 0.63 0.74 0.49 0.24 0.18 0.15 0.10 0.08 0.09 0.11 0.09 0.07 0.07 0.07 0.05 0.10 0.10 0.20 0.11 0.04 0.01 0.00 0.00 0.00 0.00
0.01 0.03 0.05 0.07 0.15 0.36 0.46 0.31 0.24 0.22 0.21 0.10 0.05 0.03 0.03 0.04 0.07 0.03 0.04 0.10 0.08 0.06 0.07 0.06 0.08 0.10 0.02 0.00 0.00 0.01 0.00 0.00
0.02 0.04 0.03 0.05 0.07 0.11 0.23 0.13 0.06 0.03 0.06 0.05 0.03 0.01 0.02 0.06 0.07 0.08 0.05 0.05 0.07 0.09 0.06 0.05 0.06 0.12 0.01 0.01 0.01 0.02 0.02 0.01
0.00 0.00 0.00 0.03 0.03 0.05 0.22 0.13 0.05 0.03 0.03 0.02 0.03 0.06 0.05 0.04 0.04 0.04 0.02 0.04 0.07 0.14 0.18 0.17 0.12 0.18 0.10 0.05 0.04 0.04 0.05 0.03
0.01 0.01 0.00 0.00 0.06 0.08 0.19 0.15 0.15 0.08 0.08 0.12 0.24 0.17 0.12 0.11 0.04 0.06 0.04 0.11 0.15 0.19 0.23 0.28 0.25 0.19 0.22 0.18 0.13 0.10 0.08 0.08
0.02 0.01 0.01 0.01 0.02 0.11 0.18 0.13 0.20 0.22 0.26 0.19 0.20 0.28 0.17 0.15 0.14 0.23 0.24 0.30 0.29 0.34 0.31 0.26 0.27 0.25 0.24 0.26 0.29 0.31 0.26 0.24
0.01 0.00 0.00 0.02 0.02 0.15 0.18 0.15 0.20 0.22 0.28 0.15 0.18 0.29 0.35 0.39 0.36 0.43 0.56 0.74 0.73 0.31 0.21 0.18 0.18 0.22 0.23 0.18 0.16 0.16 0.17 0.16
0.00 0.00 0.02 0.08 0.07 0.12 0.26 0.23 0.30 0.22 0.15 0.19 0.24 0.30 0.37 0.49 0.41 0.46 0.61 0.41 0.29 0.18 0.12 0.11 0.12 0.15 0.16 0.13 0.09 0.08 0.06 0.08
0.01 0.00 0.01 0.07 0.10 0.12 0.16 0.12 0.24 0.23 0.25 0.33 0.24 0.18 0.18 0.25 0.30 0.25 0.22 0.20 0.20 0.19 0.16 0.12 0.11 0.11 0.12 0.13 0.12 0.12 0.10 0.09
0.00 0.00 0.01 0.03 0.04 0.08 0.17 0.08 0.04 0.12 0.21 0.22 0.14 0.17 0.22 0.14 0.15 0.18 0.26 0.33 0.29 0.37 0.27 0.20 0.14 0.12 0.14 0.12 0.09 0.08 0.08 0.07
0.00 0.00 0.01 0.01 0.02 0.06 0.11 0.20 0.30 0.26 0.18 0.09 0.10 0.25 0.51 0.42 0.32 0.28 0.31 0.43 0.47 0.57 0.41 0.24 0.18 0.18 0.15 0.10 0.10 0.11 0.09 0.09
0.00 0.00 0.00 0.00 0.02 0.08 0.17 0.28 0.38 0.47 0.30 0.28 0.49 0.69 0.89 0.80 0.63 0.75 0.53 0.29 0.16 0.17 0.20 0.16 0.12 0.13 0.17 0.16 0.13 0.11 0.11 0.18
0.00 0.00 0.00 0.00 0.01 0.07 0.15 0.16 0.24 0.45 0.52 0.59 0.55 0.47 0.68 0.82 0.67 0.48 0.35 0.25 0.21 0.16 0.12 0.14 0.14 0.16 0.16 0.15 0.16 0.19 0.25 0.21
0.00 0.00 0.00 0.01 0.08 0.09 0.12 0.21 0.25 0.31 0.30 0.23 0.20 0.31 0.28 0.32 0.32 0.30 0.19 0.21 0.16 0.12 0.10 0.11 0.11 0.10 0.14 0.17 0.21 0.17 0.08 0.04
0.01 0.01 0.01 0.02 0.06 0.05 0.08 0.09 0.15 0.21 0.18 0.11 0.17 0.18 0.18 0.22 0.25 0.20 0.19 0.17 0.13 0.13 0.11 0.09 0.10 0.14 0.20 0.18 0.09 0.04 0.02 0.02
0.00 0.00 0.02 0.02 0.02 0.02 0.06 0.09 0.14 0.12 0.10 0.08 0.13 0.13 0.17 0.24 0.19 0.16 0.12 0.15 0.18 0.15 0.13 0.16 0.23 0.24 0.14 0.06 0.03 0.01 0.01 0.02
0.00 0.00 0.00 0.02 0.03 0.02 0.04 0.07 0.05 0.05 0.05 0.05 0.08 0.09 0.14 0.14 0.19 0.15 0.15 0.22 0.26 0.24 0.30 0.31 0.18 0.06 0.10 0.06 0.03 0.01 0.02 0.03
0.00 0.00 0.01 0.02 0.03 0.00 0.01 0.02 0.03 0.03 0.02 0.04 0.05 0.07 0.10 0.13 0.18 0.14 0.21 0.31 0.36 0.32 0.21 0.11 0.06 0.05 0.09 0.05 0.04 0.01 0.02 0.02

GFSFLT1_prec_precacc_063.txt.gz
Total_Precipitation_Accumulation
0.03 0.08 0.04 0.04 0.11 0.38 0.84 0.91 1.01 0.99 0.60 0.31 0.20 0.18 0.07 0.14 0.13 0.10 0.11 0.08 0.03 0.02 0.04 0.11 0.17 0.08 0.04 0.02 0.04 0.01 0.00 0.00
0.04 0.07 0.08 0.05 0.08 0.29 0.45 0.69 0.83 0.52 0.31 0.21 0.18 0.13 0.09 0.10 0.13 0.09 0.07 0.07 0.07 0.05 0.10 0.11 0.20 0.12 0.06 0.03 0.03 0.01 0.00 0.00
0.01 0.03 0.05 0.07 0.15 0.36 0.46 0.32 0.25 0.25 0.25 0.12 0.05 0.04 0.03 0.05 0.08 0.04 0.04 0.10 0.09 0.07 0.09 0.07 0.09 0.11 0.04 0.02 0.02 0.02 0.01 0.00
0.02 0.04 0.04 0.06 0.07 0.11 0.23 0.13 0.07 0.05 0.08 0.08 0.04 0.01 0.02 0.06 0.08 0.08 0.05 0.06 0.08 0.11 0.10 0.09 0.10 0.15 0.06 0.03 0.02 0.03 0.03 0.01
0.00 0.00 0.00 0.03 0.03 0.05 0.22 0.13 0.05 0.03 0.04 0.04 0.04 0.07 0.05 0.05 0.04 0.04 0.02 0.04 0.07 0.15 0.19 0.18 0.14 0.20 0.13 0.07 0.05 0.05 0.05 0.03
0.01 0.01 0.00 0.00 0.06 0.08 0.19 0.15 0.15 0.08 0.08 0.13 0.24 0.17 0.12 0.11 0.04 0.07 0.04 0.11 0.15 0.19 0.23 0.28 0.25 0.19 0.22 0.18 0.13 0.10 0.08 0.08
0.02 0.01 0.01 0.01 0.02 0.11 0.18 0.13 0.20 0.22 0.26 0.19 0.20 0.28 0.17 0.15 0.14 0.23 0.24 0.30 0.29 0.34 0.31 0.26 0.27 0.25 0.24 0.26 0.29 0.32 0.29 0.29
0.01 0.00 0.00 0.02 0.02 0.15 0.18 0.15 0.20 0.22 0.28 0.15 0.18 0.29 0.35 0.39 0.36 0.43 0.56 0.74 0.73 0.31 0.21 0.18 0.18 0.22 0.23 0.18 0.16 0.16 0.19 0.21
0.00 0.00 0.02 0.08 0.07 0.12 0.26 0.23 0.30 0.22 0.15 0.19 0.24 0.30 0.37 0.49 0.41 0.46 0.61 0.41 0.29 0.18 0.12 0.11 0.12 0.15 0.16 0.13 0.09 0.09 0.09 0.13
0.01 0.00 0.01 0.07 0.10 0.12 0.16 0.12 0.24 0.23 0.25 0.33 0.24 0.18 0.18 0.25 0.30 0.25 0.22 0.20 0.20 0.19 0.16 0.12 0.11 0.11 0.12 0.13 0.12 0.13 0.13 0.12
0.00 0.00 0.01 0.03 0.04 0.08 0.17 0.08 0.04 0.12 0.21 0.22 0.14 0.17 0.22 0.14 0.15 0.18 0.26 0.33 0.29 0.37 0.27 0.20 0.14 0.12 0.14 0.14 0.10 0.10 0.10 0.09
0.00 0.00 0.01 0.01 0.02 0.06 0.11 0.20 0.30 0.26 0.18 0.09 0.10 0.25 0.51 0.42 0.32 0.28 0.31 0.43 0.47 0.57 0.41 0.25 0.20 0.21 0.18 0.15 0.16 0.19 0.18 0.17
0.00 0.00 0.00 0.00 0.02 0.08 0.17 0.29 0.38 0.48 0.31 0.28 0.49 0.69 0.89 0.80 0.63 0.75 0.53 0.29 0.16 0.17 0.20 0.17 0.14 0.19 0.25 0.24 0.19 0.15 0.17 0.26
0.00 0.00 0.00 0.00 0.01 0.07 0.15 0.16 0.24 0.45 0.53 0.59 0.55 0.47 0.68 0.82 0.67 0.48 0.35 0.25 0.21 0.16 0.13 0.15 0.14 0.16 0.19 0.21 0.21 0.27 0.36 0.36
0.00 0.00 0.00 0.01 0.08 0.09 0.12 0.21 0.25 0.31 0.30 0.23 0.20 0.31 0.28 0.32 0.32 0.31 0.19 0.22 0.16 0.13 0.11 0.11 0.11 0.10 0.14 0.21 0.29 0.25 0.12 0.08
0.01 0.01 0.01 0.02 0.06 0.05 0.08 0.09 0.15 0.21 0.18 0.11 0.17 0.18 0.18 0.22 0.25 0.20 0.20 0.19 0.16 0.17 0.13 0.11 0.12 0.15 0.21 0.18 0.10 0.06 0.04 0.04
0.00 0.00 0.02 0.02 0.02 0.02 0.06 0.09 0.14 0.12 0.10 0.08 0.13 0.13 0.17 0.24 0.19 0.16 0.13 0.17 0.22 0.20 0.19 0.26 0.34 0.30 0.20 0.13 0.08 0.04 0.04 0.04
0.00 0.00 0.00 0.02 0.03 0.02 0.04 0.07 0.05 0.05 0.05 0.05 0.08 0.09 0.14 0.14 0.19 0.15 0.16 0.25 0.33 0.33 0.41 0.40 0.27 0.11 0.16 0.12 0.08 0.03 0.04 0.04
0.00 0.00 0.01 0.02 0.03 0.00 0.01 0.02 0.03 0.03 0.02 0.04 0.05 0.07 0.10 0.13 0.18 0.14 0.21 0.32 0.38 0.35 0.26 0.17 0.12 0.11 0.16 0.09 0.07 0.02 0.03 0.04

GFSFLT1_prec_precacc_066.txt.gz
Total_Precipitation_Accumulation
0.03 0.08 0.04 0.04 0.16 0.41 0.85 0.92 1.04 1.02 0.62 0.34 0.22 0.21 0.10 0.15 0.14 0.10 0.11 0.08 0.03 0.02 0.04 0.11 0.17 0.08 0.04 0.02 0.04 0.02 0.01 0.00
0.04 0.07 0.08 0.06 0.11 0.35 0.48 0.70 0.86 0.54 0.32 0.24 0.18 0.14 0.12 0.13 0.14 0.09 0.07 0.07 0.07 0.05 0.10 0.11 0.20 0.12 0.06 0.03 0.03 0.03 0.02 0.01
0.01 0.03 0.05 0.08 0.15 0.37 0.47 0.32 0.26 0.26 0.26 0.13 0.06 0.05 0.04 0.07 0.09 0.05 0.04 0.10 0.09 0.07 0.09 0.07 0.09 0.11 0.04 0.02 0.02 0.03 0.02 0.02
0.02 0.04 0.04 0.06 0.07 0.11 0.23 0.13 0.07 0.05 0.09 0.09 0.05 0.01 0.03 0.09 0.09 0.09 0.05 0.06 0.08 0.11 0.10 0.09 0.10 0.15 0.06 0.03 0.02 0.03 0.06 0.03
0.00 0.00 0.00 0.03 0.03 0.05 0.22 0.13 0.05 0.04 0.04 0.05 0.05 0.07 0.05 0.05 0.05 0.04 0.03 0.04 0.07 0.15 0.19 0.18 0.15 0.21 0.13 0.07 0.06 0.05 0.15 0.10
0.01 0.01 0.00 0.00 0.06 0.08 0.19 0.15 0.15 0.08 0.10 0.14 0.25 0.18 0.12 0.11 0.04 0.07 0.05 0.12 0.16 0.19 0.24 0.28 0.25 0.22 0.25 0.27 0.16 0.11 0.11 0.16
0.02 0.01 0.01 0.01 0.02 0.11 0.18 0.14 0.20 0.22 0.26 0.21 0.20 0.28 0.17 0.15 0.15 0.23 0.24 0.30 0.30 0.35 0.32 0.26 0.27 0.26 0.26 0.29 0.33 0.37 0.33 0.32
0.01 0.00 0.00 0.02 0.02 0.15 0.18 0.15 0.20 0.22 0.28 0.15 0.18 0.29 0.35 0.39 0.36 0.43 0.56 0.74 0.73 0.31 0.21 0.18 0.18 0.22 0.24 0.20 0.19 0.17 0.21 0.23
0.00 0.00 0.02 0.08 0.07 0.12 0.26 0.23 0.30 0.22 0.15 0.19 0.24 0.30 0.37 0.49 0.41 0.46 0.61 0.41 0.29 0.18 0.12 0.11 0.12 0.15 0.16 0.14 0.11 0.09 0.11 0.13
0.01 0.00 0.01 0.07 0.10 0.12 0.16 0.12 0.24 0.23 0.25 0.33 0.24 0.18 0.18 0.25 0.30 0.25 0.22 0.20 0.20 0.19 0.16 0.12 0.11 0.11 0.12 0.13 0.13 0.14 0.14 0.13
0.00 0.00 0.01 0.03 0.04 0.08 0.17 0.08 0.04 0.12 0.21 0.22 0.14 0.17 0.22 0.14 0.15 0.18 0.26 0.33 0.29 0.37 0.27 0.20 0.14 0.12 0.14 0.14 0.10 0.10 0.11 0.10
0.00 0.00 0.01 0.01 0.02 0.06 0.11 0.20 0.30 0.26 0.18 0.09 0.10 0.25 0.51 0.42 0.32 0.28 0.31 0.43 0.47 0.57 0.41 0.25 0.20 0.21 0.18 0.15 0.16 0.19 0.19 0.19
0.00 0.00 0.00 0.00 0.02 0.08 0.17 0.29 0.38 0.48 0.31 0.28 0.49 0.69 0.89 0.80 0.63 0.75 0.53 0.29 0.16 0.17 0.20 0.17 0.14 0.19 0.25 0.24 0.20 0.17 0.21 0.31
0.00 0.00 0.00 0.00 0.01 0.07 0.15 0.16 0.24 0.45 0.53 0.59 0.55 0.47 0.68 0.82 0.67 0.48 0.35 0.25 0.21 0.16 0.13 0.15 0.14 0.16 0.19 0.21 0.22 0.28 0.40 0.42
0.00 0.00 0.00 0.01 0.08 0.09 0.12 0.21 0.25 0.31 0.30 0.23 0.20 0.31 0.28 0.32 0.32 0.31 0.19 0.22 0.16 0.13 0.11 0.11 0.11 0.10 0.14 0.21 0.29 0.25 0.15 0.13
0.01 0.01 0.01 0.02 0.06 0.05 0.08 0.09 0.15 0.21 0.18 0.11 0.17 0.18 0.18 0.22 0.25 0.20 0.20 0.19 0.16 0.17 0.14 0.11 0.12 0.15 0.21 0.18 0.10 0.06 0.05 0.04
0.00 0.00 0.02 0.02 0.02 0.02 0.06 0.09 0.14 0.12 0.10 0.08 0.13 0.13 0.17 0.24 0.19 0.16 0.13 0.17 0.22 0.20 0.19 0.27 0.36 0.33 0.24 0.17 0.12 0.07 0.06 0.05
0.00 0.00 0.00 0.02 0.03 0.02 0.04 0.07 0.05 0.05 0.05 0.05 0.08 0.09 0.14 0.14 0.19 0.15 0.16 0.25 0.33 0.33 0.42 0.41 0.28 0.13 0.19 0.16 0.15 0.08 0.07 0.06
0.00 0.00 0.01 0.02 0.03 0.00 0.01 0.02 0.03 0.03 0.02 0.04 0.05 0.07 0.10 0.13 0.18 0.14 0.21 0.32 0.38 0.36 0.26 0.18 0.14 0.13 0.21 0.16 0.15 0.05 0.04 0.06

GFSFLT1_prec_precacc_072.txt.gz
Total_Precipitation_Accumulation
0.03 0.08 0.04 0.04 0.17 0.43 0.85 0.92 1.06 1.05 0.65 0.41 0.28 0.30 0.31 0.36 0.26 0.16 0.16 0.12 0.05 0.03 0.07 0.13 0.18 0.09 0.04 0.02 0.04 0.02 0.01 0.00
0.04 0.07 0.08 0.06 0.12 0.37 0.48 0.71 0.87 0.57 0.34 0.26 0.21 0.18 0.19 0.23 0.20 0.12 0.10 0.10 0.08 0.05 0.10 0.11 0.20 0.12 0.06 0.03 0.03 0.03 0.02 0.01
0.01 0.03 0.05 0.08 0.16 0.37 0.47 0.32 0.27 0.27 0.26 0.14 0.06 0.06 0.06 0.08 0.11 0.06 0.06 0.11 0.09 0.07 0.09 0.07 0.09 0.11 0.05 0.02 0.03 0.04 0.02 0.02
0.02 0.04 0.04 0.06 0.08 0.12 0.24 0.13 0.07 0.06 0.09 0.10 0.05 0.03 0.07 0.10 0.10 0.10 0.06 0.07 0.08 0.11 0.10 0.09 0.10 0.15 0.07 0.06 0.03 0.04 0.20 0.08
0.00 0.00 0.00 0.03 0.03 0.05 0.23 0.13 0.06 0.04 0.04 0.05 0.05 0.07 0.07 0.05 0.05 0.04 0.03 0.06 0.08 0.15 0.19 0.18 0.15 0.21 0.16 0.12 0.09 0.08 0.49 0.32
0.01 0.01 0.00 0.00 0.06 0.08 0.20 0.15 0.16 0.08 0.10 0.14 0.25 0.18 0.13 0.12 0.05 0.07 0.05 0.12 0.16 0.20 0.26 0.31 0.26 0.24 0.31 0.39 0.33 0.28 0.43 0.31
0.02 0.01 0.01 0.01 0.02 0.11 0.19 0.14 0.21 0.23 0.26 0.21 0.21 0.29 0.17 0.15 0.15 0.23 0.24 0.30 0.30 0.35 0.33 0.28 0.32 0.32 0.33 0.39 0.44 0.54 0.53 0.49
0.01 0.00 0.00 0.02 0.02 0.15 0.18 0.15 0.20 0.22 0.28 0.16 0.18 0.29 0.35 0.39 0.36 0.43 0.56 0.74 0.73 0.31 0.21 0.18 0.19 0.24 0.27 0.25 0.27 0.22 0.26 0.32
0.00 0.00 0.02 0.08 0.07 0.12 0.26 0.23 0.30 0.22 0.15 0.20 0.25 0.30 0.37 0.49 0.41 0.46 0.61 0.41 0.29 0.18 0.12 0.11 0.12 0.16 0.17 0.16 0.15 0.12 0.15 0.19
0.01 0.00 0.01 0.07 0.10 0.12 0.16 0.12 0.24 0.23 0.25 0.33 0.24 0.18 0.18 0.25 0.30 0.26 0.22 0.20 0.20 0.19 0.16 0.12 0.11 0.11 0.12 0.14 0.14 0.16 0.17 0.16
0.00 0.00 0.01 0.03 0.04 0.08 0.17 0.08 0.04 0.12 0.21 0.22 0.14 0.18 0.23 0.14 0.15 0.18 0.27 0.33 0.29 0.37 0.27 0.20 0.14 0.12 0.14 0.15 0.11 0.11 0.14 0.12
0.00 0.00 0.01 0.01 0.02 0.06 0.11 0.20 0.30 0.26 0.18 0.09 0.11 0.26 0.51 0.42 0.32 0.28 0.31 0.43 0.47 0.57 0.41 0.25 0.20 0.21 0.18 0.15 0.17 0.20 0.19 0.20
0.00 0.00 0.00 0.00 0.02 0.08 0.17 0.29 0.38 0.48 0.31 0.28 0.49 0.69 0.89 0.80 0.63 0.75 0.53 0.29 0.16 0.17 0.20 0.17 0.14 0.19 0.25 0.24 0.20 0.17 0.21 0.31
0.00 0.00 0.00 0.00 0.01 0.07 0.15 0.16 0.24 0.45 0.53 0.59 0.55 0.47 0.68 0.82 0.67 0.48 0.35 0.25 0.21 0.16 0.13 0.15 0.14 0.16 0.19 0.21 0.22 0.28 0.40 0.42
0.00 0.00 0.00 0.01 0.08 0.09 0.12 0.21 0.25 0.31 0.30 0.23 0.20 0.31 0.28 0.32 0.32 0.31 0.19 0.22 0.16 0.13 0.11 0.11 0.11 0.10 0.14 0.21 0.29 0.25 0.15 0.13
0.01 0.01 0.01 0.02 0.06 0.05 0.08 0.09 0.15 0.21 0.18 0.11 0.17 0.18 0.18 0.22 0.25 0.20 0.20 0.19 0.16 0.17 0.14 0.11 0.12 0.15 0.21 0.18 0.10 0.06 0.05 0.04
0.00 0.00 0.02 0.02 0.02 0.02 0.06 0.09 0.14 0.12 0.10 0.08 0.13 0.13 0.17 0.24 0.19 0.16 0.13 0.17 0.22 0.20 0.19 0.27 0.36 0.33 0.24 0.17 0.12 0.07 0.06 0.06
0.00 0.00 0.00 0.02 0.03 0.02 0.04 0.07 0.05 0.05 0.05 0.05 0.08 0.09 0.14 0.14 0.19 0.15 0.16 0.25 0.33 0.33 0.42 0.41 0.28 0.13 0.19 0.16 0.15 0.08 0.08 0.07
0.00 0.00 0.01 0.02 0.03 0.00 0.01 0.03 0.03 0.03 0.02 0.04 0.05 0.07 0.10 0.13 0.18 0.14 0.21 0.32 0.38 0.36 0.26 0.18 0.14 0.14 0.22 0.18 0.19 0.07 0.06 0.07

GFSFLT1_prec_precacc_075.txt.gz
Total_Precipitation_Accumulation
0.03 0.08 0.04 0.04 0.17 0.43 0.85 0.92 1.06 1.05 0.66 0.44 0.34 0.36 0.44 0.43 0.31 0.18 0.17 0.12 0.05 0.04 0.08 0.21 0.23 0.14 0.08 0.02 0.04 0.02 0.01 0.00
0.04 0.07 0.08 0.06 0.12 0.37 0.48 0.71 0.87 0.57 0.34 0.26 0.23 0.21 0.25 0.29 0.23 0.14 0.10 0.10 0.08 0.06 0.11 0.14 0.27 0.25 0.12 0.04 0.03 0.03 0.02 0.01
0.01 0.03 0.05 0.08 0.16 0.38 0.47 0.32 0.27 0.27 0.26 0.14 0.06 0.06 0.07 0.09 0.11 0.06 0.06 0.11 0.09 0.07 0.09 0.07 0.11 0.16 0.09 0.03 0.03 0.04 0.02 0.02
0.02 0.04 0.04 0.06 0.08 0.12 0.24 0.13 0.07 0.06 0.09 0.10 0.05 0.03 0.07 0.11 0.10 0.10 0.06 0.07 0.08 0.11 0.10 0.09 0.10 0.16 0.08 0.06 0.03 0.04 0.20 0.08
0.00 0.00 0.00 0.03 0.03 0.05 0.23 0.13 0.06 0.04 0.05 0.05 0.05 0.08 0.07 0.05 0.05 0.04 0.03 0.06 0.08 0.15 0.19 0.18 0.15 0.21 0.16 0.12 0.09 0.08 0.49 0.33
0.01 0.01 0.00 0.00 0.06 0.08 0.20 0.16 0.16 0.08 0.10 0.14 0.25 0.18 0.13 0.12 0.05 0.07 0.05 0.12 0.16 0.20 0.26 0.31 0.26 0.24 0.31 0.39 0.33 0.29 0.47 0.33
0.02 0.01 0.01 0.01 0.02 0.11 0.19 0.14 0.21 0.23 0.27 0.21 0.21 0.29 0.17 0.15 0.15 0.23 0.24 0.30 0.30 0.35 0.33 0.29 0.32 0.32 0.33 0.40 0.44 0.57 0.62 0.53
0.01 0.00 0.00 0.02 0.02 0.15 0.18 0.15 0.20 0.22 0.28 0.16 0.18 0.29 0.35 0.39 0.36 0.43 0.56 0.74 0.73 0.31 0.21 0.18 0.19 0.25 0.28 0.25 0.29 0.27 0.34 0.37
0.00 0.00 0.02 0.08 0.07 0.12 0.26 0.23 0.30 0.22 0.15 0.20 0.25 0.30 0.37 0.49 0.41 0.46 0.61 0.41 0.29 0.18 0.12 0.11 0.12 0.16 0.18 0.17 0.17 0.13 0.16 0.23
0.01 0.00 0.01 0.07 0.10 0.12 0.16 0.12 0.24 0.23 0.25 0.33 0.25 0.18 0.18 0.25 0.30 0.26 0.22 0.20 0.20 0.19 0.16 0.12 0.11 0.11 0.12 0.15 0.15 0.16 0.17 0.17
0.00 0.00 0.01 0.03 0.04 0.08 0.17 0.08 0.04 0.12 0.21 0.22 0.14 0.18 0.23 0.14 0.15 0.18 0.27 0.33 0.29 0.37 0.27 0.20 0.14 0.12 0.14 0.15 0.11 0.11 0.14 0.12
0.00 0.00 0.01 0.01 0.02 0.06 0.11 0.20 0.30 0.26 0.18 0.09 0.11 0.26 0.51 0.42 0.32 0.28 0.31 0.43 0.47 0.57 0.41 0.25 0.20 0.21 0.18 0.15 0.17 0.20 0.19 0.20
0.00 0.00 0.00 0.00 0.02 0.08 0.17 0.29 0.38 0.48 0.31 0.28 0.49 0.69 0.89 0.80 0.63 0.75 0.53 0.29 0.16 0.17 0.20 0.17 0.14 0.19 0.25 0.24 0.20 0.17 0.21 0.31
0.00 0.00 0.00 0.00 0.01 0.07 0.15 0.16 0.24 0.45 0.53 0.59 0.55 0.47 0.68 0.82 0.67 0.48 0.35 0.25 0.21 0.16 0.13 0.15 0.14 0.16 0.19 0.21 0.22 0.28 0.40 0.42
0.00 0.01 0.01 0.01 0.08 0.09 0.12 0.21 0.25 0.31 0.30 0.23 0.20 0.31 0.28 0.32 0.32 0.31 0.19 0.22 0.16 0.13 0.11 0.11 0.11 0.10 0.14 0.21 0.29 0.25 0.15 0.13
0.01 0.02 0.03 0.04 0.07 0.06 0.08 0.09 0.15 0.21 0.18 0.11 0.17 0.18 0.18 0.22 0.25 0.20 0.20 0.19 0.16 0.17 0.14 0.11 0.12 0.15 0.21 0.18 0.10 0.06 0.05 0.04
0.00 0.00 0.02 0.02 0.04 0.08 0.12 0.10 0.14 0.13 0.10 0.08 0.13 0.13 0.17 0.24 0.19 0.16 0.13 0.17 0.22 0.20 0.19 0.27 0.36 0.33 0.24 0.17 0.12 0.07 0.06 0.06
0.00 0.00 0.00 0.02 0.03 0.03 0.05 0.13 0.13 0.10 0.07 0.06 0.09 0.09 0.14 0.14 0.19 0.15 0.16 0.25 0.33 0.33 0.42 0.41 0.28 0.13 0.19 0.16 0.15 0.08 0.08 0.07
0.00 0.00 0.01 0.02 0.03 0.00 0.01 0.04 0.06 0.06 0.07 0.10 0.10 0.09 0.12 0.15 0.18 0.14 0.21 0.32 0.38 0.36 0.26 0.18 0.14 0.14 0.22 0.18 0.19 0.07 0.06 0.07

GFSFLT1_prec_precacc_081.txt.gz
Total_Precipitation_Accumulation
0.03 0.08 0.04 0.04 0.17 0.43 0.85 0.92 1.06 1.05 0.66 0.46 0.42 0.55 0.65 0.69 0.53 0.28 0.34 0.25 0.06 0.04 0.08 0.21 0.23 0.14 0.08 0.02 0.04 0.02 0.01 0.00
0.04 0.07 0.08 0.06 0.12 0.37 0.48 0.71 0.87 0.58 0.35 0.29 0.32 0.37 0.43 0.67 0.54 0.23 0.27 0.17 0.09 0.06 0.11 0.14 0.27 0.25 0.12 0.04 0.03 0.03 0.02 0.01
0.01 0.03 0.05 0.08 0.16 0.38 0.47 0.32 0.27 0.28 0.27 0.14 0.09 0.11 0.20 0.42 0.37 0.14 0.21 0.18 0.10 0.07 0.09 0.07 0.11 0.16 0.10 0.04 0.03 0.04 0.02 0.02
0.02 0.04 0.04 0.06 0.08 0.12 0.24 0.13 0.07 0.06 0.09 0.10 0.06 0.07 0.17 0.67 0.58 0.25 0.15 0.14 0.11 0.12 0.10 0.09 0.10 0.16 0.08 0.06 0.03 0.04 0.20 0.08
0.00 0.00 0.00 0.03 0.03 0.05 0.23 0.13 0.06 0.04 0.05 0.05 0.06 0.09 0.12 0.28 0.38 0.25 0.14 0.10 0.11 0.16 0.19 0.18 0.15 0.21 0.16 0.13 0.09 0.08 0.49 0.33
0.01 0.01 0.00 0.00 0.06 0.08 0.20 0.16 0.16 0.08 0.10 0.14 0.25 0.19 0.13 0.18 0.28 0.36 0.31 0.24 0.25 0.25 0.28 0.31 0.26 0.25 0.32 0.40 0.34 0.29 0.48 0.33
0.02 0.01 0.01 0.01 0.02 0.11 0.19 0.14 0.21 0.23 0.27 0.21 0.21 0.29 0.17 0.15 0.22 0.39 0.46 0.46 0.44 0.44 0.37 0.30 0.32 0.33 0.35 0.40 0.45 0.57 0.62 0.54
0.01 0.00 0.00 0.02 0.02 0.15 0.18 0.16 0.20 0.22 0.29 0.16 0.18 0.29 0.35 0.39 0.37 0.44 0.60 0.79 0.78 0.36 0.24 0.19 0.19 0.26 0.29 0.27 0.30 0.28 0.35 0.38
0.00 0.00 0.02 0.08 0.07 0.12 0.26 0.23 0.30 0.23 0.15 0.20 0.25 0.30 0.37 0.49 0.41 0.46 0.61 0.41 0.29 0.18 0.12 0.11 0.12 0.16 0.19 0.20 0.21 0.16 0.18 0.24
0.01 0.00 0.01 0.07 0.10 0.12 0.16 0.12 0.24 0.23 0.26 0.33 0.25 0.18 0.18 0.25 0.30 0.26 0.22 0.20 0.20 0.19 0.16 0.12 0.11 0.11 0.12 0.16 0.17 0.20 0.20 0.19
0.00 0.00 0.01 0.03 0.04 0.08 0.17 0.08 0.04 0.12 0.21 0.22 0.14 0.18 0.23 0.14 0.15 0.18 0.27 0.33 0.29 0.37 0.27 0.20 0.14 0.13 0.15 0.15 0.11 0.12 0.15 0.13
0.00 0.00 0.01 0.01 0.02 0.06 0.11 0.20 0.30 0.26 0.18 0.09 0.11 0.26 0.51 0.42 0.32 0.28 0.31 0.43 0.47 0.57 0.41 0.25 0.20 0.21 0.18 0.15 0.17 0.20 0.19 0.20
0.00 0.00 0.00 0.00 0.02 0.08 0.17 0.29 0.38 0.48 0.31 0.28 0.49 0.69 0.89 0.80 0.63 0.75 0.53 0.29 0.16 0.17 0.20 0.17 0.14 0.19 0.25 0.24 0.20 0.17 0.21 0.31
0.00 0.00 0.00 0.00 0.03 0.08 0.16 0.17 0.24 0.45 0.53 0.59 0.55 0.47 0.68 0.82 0.67 0.48 0.35 0.25 0.21 0.16 0.13 0.15 0.14 0.16 0.19 0.21 0.22 0.28 0.40 0.42
0.02 0.04 0.03 0.06 0.13 0.12 0.14 0.23 0.27 0.31 0.30 0.23 0.20 0.31 0.28 0.32 0.32 0.31 0.19 0.22 0.16 0.13 0.11 0.11 0.11 0.10 0.14 0.21 0.29 0.25 0.15 0.13
0.03 0.08 0.14 0.13 0.12 0.09 0.10 0.10 0.17 0.22 0.19 0.12 0.18 0.18 0.18 0.22 0.25 0.20 0.20 0.19 0.16 0.17 0.14 0.11 0.12 0.15 0.21 0.18 0.10 0.06 0.05 0.04
0.02 0.05 0.10 0.08 0.14 0.21 0.24 0.18 0.20 0.18 0.14 0.15 0.17 0.16 0.20 0.25 0.19 0.16 0.13 0.17 0.22 0.20 0.19 0.27 0.36 0.33 0.24 0.17 0.12 0.07 0.06 0.06
0.00 0.00 0.01 0.03 0.04 0.05 0.08 0.15 0.14 0.14 0.15 0.15 0.15 0.15 0.18 0.17 0.22 0.17 0.19 0.28 0.34 0.34 0.43 0.42 0.28 0.13 0.19 0.16 0.15 0.08 0.08 0.07
0.00 0.00 0.01 0.02 0.03 0.00 0.01 0.04 0.06 0.07 0.09 0.13 0.11 0.12 0.14 0.18 0.22 0.20 0.27 0.36 0.42 0.40 0.31 0.21 0.15 0.17 0.23 0.19 0.19 0.07 0.06 0.07